Tracking 29892 objects as of 21-Nov-2024
HD Live streaming from Space Station
objects crossing your sky now

THOR ABLESTAR DEB

Track THOR ABLESTAR DEB now!
10-day predictions


NORAD ID: 967
Int'l Code: 1964-083F
Perigee: 1,001.8 km
Apogee: 1,033.1 km
Inclination: 90.0 °
Period: 105.3 minutes
Semi major axis: 7388 km
RCS: 0.0652 m2 (small)
Launch date: December 13, 1964
Source: United States (US)
Launch site: AIR FORCE WESTERN TEST RANGE (AFWTR)

Note: This is SATELLITE DEBRIS
Your satellite tracking list
Your tracking list is empty




NASA's NSSDC Master Catalog

Two Line Element Set (TLE):
1   967U 64083F   24325.56903118  .00000475  00000-0  55572-3 0  9995
2   967  89.9529 176.5332 0021219 303.0366  85.0770 13.67011185978137
Source of the keplerian elements: AFSPC